Location: Milano
(45.4642°N, 9.1900°E)
Time: 02:19:28
(UTC+02:00)

ISS - Pass Details

Date: 14 May 2021
Orbit: 417 x 422 km, 51.6° (Epoch: 14 June)

Event Time Altitude Azimuth Distance (km) Brightness Sun altitude
Exits shadow 01:18:08 28° 12° (NNE) 823 -1.7 -25.9°
Drops below altitude 10° 01:20:34 10° 55° (NE) 1,508 -0.5 -25.9°
Sets 01:22:50 0° 66° (ENE) 2,374 0.4 -25.9°
